Time,TemperatureF,DewpointF,PressureIn,WindDirection,WindDirectionDegrees,WindSpeedMPH,WindSpeedGustMPH,Humidity,HourlyPrecipIn,Conditions,Clouds,dailyrainin,SoftwareType,DateUTC
2013-03-04 00:00:00,25.0,-99.9,-100.00,WNW,293,11.0,14.0,-999,-99.99,,,-99.99,,2013-03-04 05:00:00,
2013-03-04 00:22:00,25.0,-99.9,-100.00,WNW,293,11.0,14.0,-999,-99.99,,,-99.99,,2013-03-04 05:22:00,
2013-03-04 00:32:00,25.0,-99.9,-100.00,WNW,293,11.0,14.0,-999,-99.99,,,-99.99,,2013-03-04 05:32:00,
2013-03-04 00:43:00,25.0,-99.9,-100.00,WNW,293,11.0,14.0,-999,-99.99,,,-99.99,,2013-03-04 05:43:00,
2013-03-04 00:52:00,25.0,-99.9,-100.00,WNW,293,11.0,14.0,-999,-99.99,,,-99.99,,2013-03-04 05:52:00,
2013-03-04 01:00:00,25.0,-99.9,-100.00,WNW,289,12.0,14.0,-999,-99.99,,,-99.99,,2013-03-04 06:00:00,
2013-03-04 01:22:00,25.0,-99.9,-100.00,WNW,289,12.0,14.0,-999,-99.99,,,-99.99,,2013-03-04 06:22:00,
2013-03-04 01:32:00,25.0,-99.9,-100.00,WNW,289,12.0,14.0,-999,-99.99,,,-99.99,,2013-03-04 06:32:00,
2013-03-04 01:42:00,25.0,-99.9,-100.00,WNW,289,12.0,14.0,-999,-99.99,,,-99.99,,2013-03-04 06:42:00,
2013-03-04 01:52:00,25.0,-99.9,-100.00,WNW,289,12.0,14.0,-999,-99.99,,,-99.99,,2013-03-04 06:52:00,
2013-03-04 02:00:00,25.0,-99.9,-100.00,WNW,291,10.0,15.0,-999,-99.99,,,-99.99,,2013-03-04 07:00:00,
2013-03-04 02:22:00,25.0,-99.9,-100.00,WNW,291,10.0,15.0,-999,-99.99,,,-99.99,,2013-03-04 07:22:00,
2013-03-04 02:32:00,25.0,-99.9,-100.00,WNW,291,10.0,15.0,-999,-99.99,,,-99.99,,2013-03-04 07:32:00,
2013-03-04 02:42:00,25.0,-99.9,-100.00,WNW,291,10.0,15.0,-999,-99.99,,,-99.99,,2013-03-04 07:42:00,
2013-03-04 02:52:00,25.0,-99.9,-100.00,WNW,291,10.0,15.0,-999,-99.99,,,-99.99,,2013-03-04 07:52:00,
2013-03-04 03:00:00,25.0,-99.9,-100.00,WNW,293,13.0,18.0,-999,-99.99,,,-99.99,,2013-03-04 08:00:00,
2013-03-04 03:22:00,25.0,-99.9,-100.00,WNW,293,13.0,18.0,-999,-99.99,,,-99.99,,2013-03-04 08:22:00,
2013-03-04 03:32:00,25.0,-99.9,-100.00,WNW,293,13.0,18.0,-999,-99.99,,,-99.99,,2013-03-04 08:32:00,
2013-03-04 03:42:00,25.0,-99.9,-100.00,WNW,293,13.0,18.0,-999,-99.99,,,-99.99,,2013-03-04 08:42:00,
2013-03-04 03:53:00,25.0,-99.9,-100.00,WNW,293,13.0,18.0,-999,-99.99,,,-99.99,,2013-03-04 08:53:00,
2013-03-04 04:00:00,25.0,-99.9,-100.00,NW,311,12.0,17.0,-999,-99.99,,,-99.99,,2013-03-04 09:00:00,
2013-03-04 04:22:00,25.0,-99.9,-100.00,NW,311,12.0,17.0,-999,-99.99,,,-99.99,,2013-03-04 09:22:00,
2013-03-04 04:32:00,25.0,-99.9,-100.00,NW,311,12.0,17.0,-999,-99.99,,,-99.99,,2013-03-04 09:32:00,
2013-03-04 04:42:00,25.0,-99.9,-100.00,NW,311,12.0,17.0,-999,-99.99,,,-99.99,,2013-03-04 09:42:00,
2013-03-04 04:52:00,25.0,-99.9,-100.00,NW,311,12.0,17.0,-999,-99.99,,,-99.99,,2013-03-04 09:52:00,
2013-03-04 05:00:00,24.0,-99.9,-100.00,NW,304,17.0,23.0,-999,-99.99,,,-99.99,,2013-03-04 10:00:00,
2013-03-04 05:22:00,24.0,-99.9,-100.00,NW,304,17.0,23.0,-999,-99.99,,,-99.99,,2013-03-04 10:22:00,
2013-03-04 05:32:00,24.0,-99.9,-100.00,NW,304,17.0,23.0,-999,-99.99,,,-99.99,,2013-03-04 10:32:00,
2013-03-04 05:42:00,24.0,-99.9,-100.00,NW,304,17.0,23.0,-999,-99.99,,,-99.99,,2013-03-04 10:42:00,
2013-03-04 05:52:00,24.0,-99.9,-100.00,NW,304,17.0,23.0,-999,-99.99,,,-99.99,,2013-03-04 10:52:00,
2013-03-04 06:00:00,24.0,-99.9,-100.00,NW,320,23.0,27.0,-999,-99.99,,,-99.99,,2013-03-04 11:00:00,
2013-03-04 06:22:00,24.0,-99.9,-100.00,NW,320,23.0,27.0,-999,-99.99,,,-99.99,,2013-03-04 11:22:00,
2013-03-04 06:32:00,24.0,-99.9,-100.00,NW,320,23.0,27.0,-999,-99.99,,,-99.99,,2013-03-04 11:32:00,
2013-03-04 06:42:00,24.0,-99.9,-100.00,NW,320,23.0,27.0,-999,-99.99,,,-99.99,,2013-03-04 11:42:00,
2013-03-04 06:52:00,24.0,-99.9,-100.00,NW,320,23.0,27.0,-999,-99.99,,,-99.99,,2013-03-04 11:52:00,
2013-03-04 07:00:00,23.0,-99.9,-100.00,NW,311,19.0,29.0,-999,-99.99,,,-99.99,,2013-03-04 12:00:00,
2013-03-04 07:22:00,23.0,-99.9,-100.00,NW,311,19.0,29.0,-999,-99.99,,,-99.99,,2013-03-04 12:22:00,
2013-03-04 07:32:00,23.0,-99.9,-100.00,NW,311,19.0,29.0,-999,-99.99,,,-99.99,,2013-03-04 12:32:00,
2013-03-04 07:43:00,23.0,-99.9,-100.00,NW,311,19.0,29.0,-999,-99.99,,,-99.99,,2013-03-04 12:43:00,
2013-03-04 07:53:00,23.0,-99.9,-100.00,NW,311,19.0,29.0,-999,-99.99,,,-99.99,,2013-03-04 12:53:00,
2013-03-04 08:00:00,24.0,-99.9,-100.00,NW,306,20.0,28.0,-999,-99.99,,,-99.99,,2013-03-04 13:00:00,
2013-03-04 08:22:00,24.0,-99.9,-100.00,NW,306,20.0,28.0,-999,-99.99,,,-99.99,,2013-03-04 13:22:00,
2013-03-04 08:32:00,24.0,-99.9,-100.00,NW,306,20.0,28.0,-999,-99.99,,,-99.99,,2013-03-04 13:32:00,
2013-03-04 08:42:00,24.0,-99.9,-100.00,NW,306,20.0,28.0,-999,-99.99,,,-99.99,,2013-03-04 13:42:00,
2013-03-04 08:52:00,24.0,-99.9,-100.00,NW,306,20.0,28.0,-999,-99.99,,,-99.99,,2013-03-04 13:52:00,
2013-03-04 09:00:00,24.0,-99.9,-100.00,NW,304,20.0,28.0,-999,-99.99,,,-99.99,,2013-03-04 14:00:00,
2013-03-04 09:22:00,24.0,-99.9,-100.00,NW,304,20.0,28.0,-999,-99.99,,,-99.99,,2013-03-04 14:22:00,
2013-03-04 09:32:00,24.0,-99.9,-100.00,NW,304,20.0,28.0,-999,-99.99,,,-99.99,,2013-03-04 14:32:00,
2013-03-04 09:42:00,24.0,-99.9,-100.00,NW,304,20.0,28.0,-999,-99.99,,,-99.99,,2013-03-04 14:42:00,
2013-03-04 09:52:00,24.0,-99.9,-100.00,NW,304,20.0,28.0,-999,-99.99,,,-99.99,,2013-03-04 14:52:00,
2013-03-04 10:00:00,24.0,-99.9,-100.00,NW,312,22.0,28.0,-999,-99.99,,,-99.99,,2013-03-04 15:00:00,
2013-03-04 10:22:00,24.0,-99.9,-100.00,NW,312,22.0,28.0,-999,-99.99,,,-99.99,,2013-03-04 15:22:00,
2013-03-04 10:32:00,24.0,-99.9,-100.00,NW,312,22.0,28.0,-999,-99.99,,,-99.99,,2013-03-04 15:32:00,
2013-03-04 10:42:00,24.0,-99.9,-100.00,NW,312,22.0,28.0,-999,-99.99,,,-99.99,,2013-03-04 15:42:00,
2013-03-04 10:52:00,24.0,-99.9,-100.00,NW,312,22.0,28.0,-999,-99.99,,,-99.99,,2013-03-04 15:52:00,
2013-03-04 11:00:00,25.0,-99.9,-100.00,NW,306,16.0,26.0,-999,-99.99,,,-99.99,,2013-03-04 16:00:00,
2013-03-04 11:22:00,25.0,-99.9,-100.00,NW,306,16.0,26.0,-999,-99.99,,,-99.99,,2013-03-04 16:22:00,
2013-03-04 11:32:00,25.0,-99.9,-100.00,NW,306,16.0,26.0,-999,-99.99,,,-99.99,,2013-03-04 16:32:00,
2013-03-04 11:42:00,25.0,-99.9,-100.00,NW,306,16.0,26.0,-999,-99.99,,,-99.99,,2013-03-04 16:42:00,
2013-03-04 11:52:00,25.0,-99.9,-100.00,NW,306,16.0,26.0,-999,-99.99,,,-99.99,,2013-03-04 16:52:00,
2013-03-04 12:00:00,26.0,-99.9,-100.00,WNW,294,20.0,29.0,-999,-99.99,,,-99.99,,2013-03-04 17:00:00,
2013-03-04 12:22:00,26.0,-99.9,-100.00,WNW,294,20.0,29.0,-999,-99.99,,,-99.99,,2013-03-04 17:22:00,
2013-03-04 12:32:00,26.0,-99.9,-100.00,WNW,294,20.0,29.0,-999,-99.99,,,-99.99,,2013-03-04 17:32:00,
2013-03-04 12:42:00,26.0,-99.9,-100.00,WNW,294,20.0,29.0,-999,-99.99,,,-99.99,,2013-03-04 17:42:00,
2013-03-04 12:52:00,26.0,-99.9,-100.00,WNW,294,20.0,29.0,-999,-99.99,,,-99.99,,2013-03-04 17:52:00,
2013-03-04 13:00:00,27.0,-99.9,-100.00,WNW,302,19.0,26.0,-999,-99.99,,,-99.99,,2013-03-04 18:00:00,
2013-03-04 13:22:00,27.0,-99.9,-100.00,WNW,302,19.0,26.0,-999,-99.99,,,-99.99,,2013-03-04 18:22:00,
2013-03-04 13:33:00,27.0,-99.9,-100.00,WNW,302,19.0,26.0,-999,-99.99,,,-99.99,,2013-03-04 18:33:00,
2013-03-04 13:43:00,27.0,-99.9,-100.00,WNW,302,19.0,26.0,-999,-99.99,,,-99.99,,2013-03-04 18:43:00,
2013-03-04 13:53:00,27.0,-99.9,-100.00,WNW,302,19.0,26.0,-999,-99.99,,,-99.99,,2013-03-04 18:53:00,
2013-03-04 14:00:00,28.0,-99.9,-100.00,NW,304,20.0,26.0,-999,-99.99,,,-99.99,,2013-03-04 19:00:00,
2013-03-04 14:22:00,28.0,-99.9,-100.00,NW,304,20.0,26.0,-999,-99.99,,,-99.99,,2013-03-04 19:22:00,
2013-03-04 14:33:00,28.0,-99.9,-100.00,NW,304,20.0,26.0,-999,-99.99,,,-99.99,,2013-03-04 19:33:00,
2013-03-04 14:42:00,28.0,-99.9,-100.00,NW,304,20.0,26.0,-999,-99.99,,,-99.99,,2013-03-04 19:42:00,
2013-03-04 14:52:00,28.0,-99.9,-100.00,NW,304,20.0,26.0,-999,-99.99,,,-99.99,,2013-03-04 19:52:00,
2013-03-04 15:00:00,29.0,-99.9,-100.00,WNW,296,22.0,29.0,-999,-99.99,,,-99.99,,2013-03-04 20:00:00,
2013-03-04 15:22:00,29.0,-99.9,-100.00,WNW,296,22.0,29.0,-999,-99.99,,,-99.99,,2013-03-04 20:22:00,
2013-03-04 15:33:00,29.0,-99.9,-100.00,WNW,296,22.0,29.0,-999,-99.99,,,-99.99,,2013-03-04 20:33:00,
2013-03-04 15:42:00,29.0,-99.9,-100.00,WNW,296,22.0,29.0,-999,-99.99,,,-99.99,,2013-03-04 20:42:00,
2013-03-04 15:53:00,29.0,-99.9,-100.00,WNW,296,22.0,29.0,-999,-99.99,,,-99.99,,2013-03-04 20:53:00,
2013-03-04 16:00:00,29.0,-99.9,-100.00,NW,307,21.0,29.0,-999,-99.99,,,-99.99,,2013-03-04 21:00:00,
2013-03-04 16:22:00,29.0,-99.9,-100.00,NW,307,21.0,29.0,-999,-99.99,,,-99.99,,2013-03-04 21:22:00,
2013-03-04 16:33:00,29.0,-99.9,-100.00,NW,307,21.0,29.0,-999,-99.99,,,-99.99,,2013-03-04 21:33:00,
2013-03-04 16:43:00,29.0,-99.9,-100.00,NW,307,21.0,29.0,-999,-99.99,,,-99.99,,2013-03-04 21:43:00,
2013-03-04 16:53:00,29.0,-99.9,-100.00,NW,307,21.0,29.0,-999,-99.99,,,-99.99,,2013-03-04 21:53:00,
2013-03-04 17:00:00,30.0,-99.9,-100.00,NW,304,16.0,26.0,-999,-99.99,,,-99.99,,2013-03-04 22:00:00,
2013-03-04 17:22:00,30.0,-99.9,-100.00,NW,304,16.0,26.0,-999,-99.99,,,-99.99,,2013-03-04 22:22:00,
2013-03-04 17:32:00,30.0,-99.9,-100.00,NW,304,16.0,26.0,-999,-99.99,,,-99.99,,2013-03-04 22:32:00,
2013-03-04 17:43:00,30.0,-99.9,-100.00,NW,304,16.0,26.0,-999,-99.99,,,-99.99,,2013-03-04 22:43:00,
2013-03-04 17:52:00,30.0,-99.9,-100.00,NW,304,16.0,26.0,-999,-99.99,,,-99.99,,2013-03-04 22:52:00,
2013-03-04 18:00:00,30.0,-99.9,-100.00,NW,318,15.0,21.0,-999,-99.99,,,-99.99,,2013-03-04 23:00:00,
2013-03-04 18:22:00,30.0,-99.9,-100.00,NW,318,15.0,21.0,-999,-99.99,,,-99.99,,2013-03-04 23:22:00,
2013-03-04 18:32:00,30.0,-99.9,-100.00,NW,318,15.0,21.0,-999,-99.99,,,-99.99,,2013-03-04 23:32:00,
2013-03-04 18:42:00,30.0,-99.9,-100.00,NW,318,15.0,21.0,-999,-99.99,,,-99.99,,2013-03-04 23:42:00,
2013-03-04 18:53:00,30.0,-99.9,-100.00,NW,318,15.0,21.0,-999,-99.99,,,-99.99,,2013-03-04 23:53:00,
2013-03-04 19:00:00,31.0,-99.9,-100.00,NW,322,15.0,25.0,-999,-99.99,,,-99.99,,2013-03-05 00:00:00,
2013-03-04 19:22:00,31.0,-99.9,-100.00,NW,322,15.0,25.0,-999,-99.99,,,-99.99,,2013-03-05 00:22:00,
2013-03-04 19:33:00,31.0,-99.9,-100.00,NW,322,15.0,25.0,-999,-99.99,,,-99.99,,2013-03-05 00:33:00,
2013-03-04 19:42:00,31.0,-99.9,-100.00,NW,322,15.0,25.0,-999,-99.99,,,-99.99,,2013-03-05 00:42:00,
2013-03-04 19:52:00,31.0,-99.9,-100.00,NW,322,15.0,25.0,-999,-99.99,,,-99.99,,2013-03-05 00:52:00,
2013-03-04 20:00:00,30.0,-99.9,-100.00,NW,322,18.0,26.0,-999,-99.99,,,-99.99,,2013-03-05 01:00:00,
2013-03-04 20:22:00,30.0,-99.9,-100.00,NW,322,18.0,26.0,-999,-99.99,,,-99.99,,2013-03-05 01:22:00,
2013-03-04 20:33:00,30.0,-99.9,-100.00,NW,322,18.0,26.0,-999,-99.99,,,-99.99,,2013-03-05 01:33:00,
2013-03-04 20:42:00,30.0,-99.9,-100.00,NW,322,18.0,26.0,-999,-99.99,,,-99.99,,2013-03-05 01:42:00,
2013-03-04 20:52:00,30.0,-99.9,-100.00,NW,322,18.0,26.0,-999,-99.99,,,-99.99,,2013-03-05 01:52:00,
2013-03-04 21:00:00,29.0,-99.9,-100.00,NW,324,18.0,24.0,-999,-99.99,,,-99.99,,2013-03-05 02:00:00,
2013-03-04 21:22:00,29.0,-99.9,-100.00,NW,324,18.0,24.0,-999,-99.99,,,-99.99,,2013-03-05 02:22:00,
2013-03-04 21:33:00,29.0,-99.9,-100.00,NW,324,18.0,24.0,-999,-99.99,,,-99.99,,2013-03-05 02:33:00,
2013-03-04 21:42:00,29.0,-99.9,-100.00,NW,324,18.0,24.0,-999,-99.99,,,-99.99,,2013-03-05 02:42:00,
2013-03-04 21:53:00,29.0,-99.9,-100.00,NW,324,18.0,24.0,-999,-99.99,,,-99.99,,2013-03-05 02:53:00,
2013-03-04 22:00:00,29.0,-99.9,-100.00,NW,315,15.0,26.0,-999,-99.99,,,-99.99,,2013-03-05 03:00:00,
2013-03-04 22:22:00,29.0,-99.9,-100.00,NW,315,15.0,26.0,-999,-99.99,,,-99.99,,2013-03-05 03:22:00,
2013-03-04 22:32:00,29.0,-99.9,-100.00,NW,315,15.0,26.0,-999,-99.99,,,-99.99,,2013-03-05 03:32:00,
2013-03-04 22:42:00,29.0,-99.9,-100.00,NW,315,15.0,26.0,-999,-99.99,,,-99.99,,2013-03-05 03:42:00,
2013-03-04 22:53:00,29.0,-99.9,-100.00,NW,315,15.0,26.0,-999,-99.99,,,-99.99,,2013-03-05 03:53:00,
2013-03-04 23:00:00,28.0,-99.9,-100.00,NW,318,18.0,23.0,-999,-99.99,,,-99.99,,2013-03-05 04:00:00,
2013-03-04 23:22:00,28.0,-99.9,-100.00,NW,318,18.0,23.0,-999,-99.99,,,-99.99,,2013-03-05 04:22:00,
2013-03-04 23:32:00,28.0,-99.9,-100.00,NW,318,18.0,23.0,-999,-99.99,,,-99.99,,2013-03-05 04:32:00,
2013-03-04 23:42:00,28.0,-99.9,-100.00,NW,318,18.0,23.0,-999,-99.99,,,-99.99,,2013-03-05 04:42:00,
2013-03-04 23:52:00,28.0,-99.9,-100.00,NW,318,18.0,23.0,-999,-99.99,,,-99.99,,2013-03-05 04:52:00,